Regional Weather Roundup
Issued by NWS

Home | Current Version | Previous Version | Text Only | Print | Product List | Glossary Off
Versions: 1 2 3 4 5 6 7 8 9 10 11 12 13 14 15 16 17 18 19 20 21 22 23 24 25 26 27 28 29 30 31 32 33 34 35 36 37 38 39 40 41 42 43 44 45 46 47 48 49 50

000
ASUS44 KMEG 301010
RWRTN
TENNESSEE HOURLY STATE WEATHER ROUNDUP
NATIONAL WEATHER SERVICE MEMPHIS TN
500 AM CDT SUN AUG 30 2015

TNZ002-004-019-021-049-052-054-088>092-301100-
WEST TENNESSEE

CITY           SKY/WX    TMP DP  RH WIND       PRES   REMARKS
MEMPHIS INTL   CLOUDY    75  69  81 S3        30.02S
NWS MEMPHIS      N/A     74 N/A N/A MISG        N/A
JACKSON        MOCLDY    70  66  87 VRB3      30.05S
DYERSBURG      MOCLDY   N/A N/A N/A MISG        N/A
UNION CITY     PTCLDY   N/A N/A N/A E3        30.04S
PARIS          PTCLDY    68  64  88 SE3       30.07S
LEXINGTON      PTCLDY    66  66 100 CALM      30.07R
$$

TNZ008-025-027-028-033-062-065-066-301100-
NORTH MIDDLE TENNESSEE

CITY           SKY/WX    TMP DP  RH WIND       PRES   REMARKS
NASHVILLE      MOCLDY    70  65  84 CALM      30.10R
CLARKSVILLE    MOCLDY    68  66  93 SE6       30.08R
SMYRNA         MOCLDY    68  67  96 CALM      30.11R
COOKEVILLE     CLEAR     70  68  94 CALM      30.11S
CROSSVILLE     CLOUDY    70  61  73 CALM      30.17R
$$

TNZ061-075-076-078-094-096-097-301100-
SOUTH MIDDLE TENNESSEE

CITY           SKY/WX    TMP DP  RH WIND       PRES   REMARKS
FAYETTEVILLE   PTCLDY    68  66  94 CALM      30.11R
TULLAHOMA      CLEAR     68  66  94 CALM      30.12S
WINCHESTER     MOCLDY    70  66  88 SE7       30.12R
MCMINNVILLE    PTCLDY    70  70 100 CALM      30.12R
COLUMBIA       PTCLDY    66  66 100 CALM      30.09R
SHELBYVILLE    CLOUDY    70  70 100 CALM      30.11S
$$

TNZ017-018-042-046-047-301100-
NORTHEAST TENNESSEE

CITY           SKY/WX    TMP DP  RH WIND       PRES   REMARKS
TRI CITIES     CLOUDY    65  63  93 CALM      30.17R
ELIZABETHTON   SUNNY     64  59  82 CALM      30.19R
$$

TNZ012-013-036-069-073-074-301100-
CENTRAL EAST TENNESSEE

CITY           SKY/WX    TMP DP  RH WIND       PRES   REMARKS
KNOXVILLE      CLOUDY    71  67  87 CALM      30.13R
OAK RIDGE      CLOUDY    71  67  87 CALM      30.15R
GATLINBURG     SUNNY     66  63  88 CALM      30.15R
MORRISTOWN     SUNNY     70  64  83 CALM      30.17R
$$

TNZ083-085-099-301100-
SOUTHEAST TENNESSEE

CITY           SKY/WX    TMP DP  RH WIND       PRES   REMARKS
CHATTANOOGA    LGT RAIN  71  68  90 SW3       30.13R
$$

SKY/WX REPORTED AS FAIR MEANS FEW OR NO CLOUDS BELOW
12 THOUSAND FEET.



USA.gov is the U.S. government's official web portal to all federal, state and local government web resources and services.